This is the latest recevied weather packets stored in our database for station/object PY2XH-13. If no packets are shown the sender has not sent any weather packets the latest 10 day(s).
| Time | Temp. | Humidity | Pressure | Rain* | Wind** | Luminosity | Snow |
|---|---|---|---|---|---|---|---|
| 1787922965 | 22.22° C | 63% | 1029 hPa | - | - | - | - |
| 1787921165 | 21.67° C | 65% | 1029.5 hPa | - | - | - | - |
| 1787919364 | 21.11° C | 65% | 1029.4 hPa | - | - | - | - |
| 1787917564 | 21.11° C | 66% | 1029.2 hPa | - | - | - | - |
| 1787915764 | 21.11° C | 67% | 1028.8 hPa | - | - | - | - |
| 1787912164 | 21.11° C | 69% | 1028.9 hPa | - | - | - | - |
| 1787908564 | 21.67° C | 68% | 1028.7 hPa | - | - | - | - |
| 1787904964 | 21.67° C | 68% | 1028.2 hPa | - | - | - | - |
| 1787903164 | 21.67° C | 68% | 1028 hPa | - | - | - | - |
| 1787901364 | 21.67° C | 68% | 1028.1 hPa | - | - | - | - |
| 1787899564 | 21.67° C | 68% | 1028 hPa | - | - | - | - |
| 1787897764 | 21.67° C | 68% | 1028.2 hPa | - | - | - | - |
| 1787895964 | 21.67° C | 69% | 1028.4 hPa | - | - | - | - |
| 1787894164 | 21.67° C | 68% | 1028.5 hPa | - | - | - | - |
| 1787892364 | 21.67° C | 68% | 1028.6 hPa | - | - | - | - |
| 1787890565 | 21.67° C | 69% | 1028.9 hPa | - | - | - | - |
| 1787888764 | 21.67° C | 69% | 1029 hPa | - | - | - | - |
| 1787886964 | 21.67° C | 69% | 1029.3 hPa | - | - | - | - |
| 1787885164 | 21.67° C | 68% | 1029.2 hPa | - | - | - | - |
| 1787883364 | 21.67° C | 68% | 1029.2 hPa | - | - | - | - |
| 1787881564 | 22.22° C | 64% | 1029.1 hPa | - | - | - | - |
| 1787879764 | 21.67° C | 63% | 1029 hPa | - | - | - | - |
| 1787877964 | 22.22° C | 62% | 1029 hPa | - | - | - | - |
| 1787876165 | 21.67° C | 62% | 1028.9 hPa | - | - | - | - |
| 1787872564 | 21.67° C | 60% | 1028.4 hPa | - | - | - | - |
* Rain since midnight (hover to see other rain measurements)
** Current wind speed in m/s (hover to see current wind gust speed)